This demonstration page uses our WeatherBlox Daily Observations layout. Learn more.

Left ArrowRight Arrow

Hourly Observations for October 17, 2021

Temp ( °F °C ) Dew Point ( °F °C ) Humidity (%) Winds ( mph kmh ) Pressure ( in mb ) Visibility ( mi km ) Precip ( " mm )
12:53 am 00:53 Clear 54 12.2 25 -3.9 33 33 ESE 8 13 30.27 1025 10 16 0.00 0.00
1:53 am 01:53 Clear 52 11.1 26 -3.3 37 37 ESE 7 11 30.26 1025 10 16 0.00 0.00
2:53 am 02:53 Clear 52 11.1 27 -2.8 38 38 E 6 9 30.25 1025 10 16 0.00 0.00
3:53 am 03:53 Clear 50 10 27 -2.8 41 41 E 6 9 30.24 1024 10 16 0.00 0.00
4:53 am 04:53 Clear 48 8.9 27 -2.8 44 44 E 6 9 30.23 1024 10 16 0.00 0.00
5:53 am 05:53 Clear 49 9.4 28 -2.2 44 44 E 6 9 30.23 1024 10 16 0.00 0.00
6:53 am 06:53 Clear 51 10.6 28 -2.2 41 41 E 8 13 30.23 1024 10 16 0.00 0.00
7:53 am 07:53 Clear 51 10.6 29 -1.7 43 43 ESE 8 13 30.24 1024 10 16 0.00 0.00
8:53 am 08:53 Sunny 51 10.6 29 -1.7 43 43 ESE 8 13 30.25 1024 10 16 0.00 0.00
9:53 am 09:53 Sunny 56 13.3 30 -1.1 37 37 ESE 14 22 30.25 1024 10 16 0.00 0.00
10:53 am 10:53 Sunny 62 16.7 30 -1.1 30 30 SE 16 26 30.24 1024 10 16 0.00 0.00
11:53 am 11:53 Sunny 66 18.9 30 -1.1 26 26 SSE 15 24 30.23 1024 10 16 0.00 0.00
12:53 pm 12:53 Sunny 68 20 31 -0.6 25 25 SSE 15 24 30.21 1023 10 16 0.00 0.00
1:53 pm 13:53 Sunny 71 21.7 31 -0.6 23 23 SE 15 24 30.16 1021 10 16 0.00 0.00
2:53 pm 14:53 Sunny 72 22.2 31 -0.6 22 22 SSE 15 24 30.12 1020 10 16 0.00 0.00
3:53 pm 15:53 Sunny 74 23.3 32 0 21 21 SSE 15 24 30.08 1019 10 16 0.00 0.00
4:53 pm 16:53 Sunny 74 23.3 33 0.6 22 22 SE 15 24 30.06 1018 10 16 0.00 0.00
5:53 pm 17:53 Sunny 74 23.3 34 1.1 23 23 SE 14 22 30.04 1017 10 16 0.00 0.00
6:53 pm 18:53 Sunny 72 22.2 34 1.1 25 25 SE 15 24 30.03 1017 10 16 0.00 0.00
7:53 pm 19:53 Clear 68 20 33 0.6 27 27 SE 13 20 30.03 1017 10 16 0.00 0.00
8:53 pm 20:53 Clear 66 18.9 33 0.6 29 29 SE 13 20 30.05 1018 10 16 0.00 0.00
9:53 pm 21:53 Clear 64 17.8 33 0.6 32 32 SE 13 20 30.06 1018 10 16 0.00 0.00
10:53 pm 22:53 Clear 62 16.7 33 0.6 34 34 SE 15 24 30.06 1018 10 16 0.00 0.00
11:53 pm 23:53 Clear 61 16.1 33 0.6 35 35 SE 16 26 30.03 1017 10 16 0.00 0.00

Powered by AerisWeather